Time,TemperatureF,DewpointF,PressureIn,WindDirection,WindDirectionDegrees,WindSpeedMPH,WindSpeedGustMPH,Humidity,HourlyPrecipIn,Conditions,Clouds,dailyrainin,SoftwareType,DateUTC
2013-01-04 00:09:00,59.4,58.0,29.96,SSW,202,0.0,-999.0,95,-99.99,,,0.00,Acu-Link.com,2013-01-04 05:09:00,
2013-01-04 00:24:00,59.4,58.3,29.96,West,270,1.1,-999.0,96,-99.99,,,0.00,Acu-Link.com,2013-01-04 05:24:00,
2013-01-04 00:40:00,59.5,58.4,29.95,North,0,2.2,-999.0,96,-99.99,,,0.01,Acu-Link.com,2013-01-04 05:40:00,
2013-01-04 00:55:00,59.5,58.4,29.95,West,270,1.7,-999.0,96,-99.99,,,0.01,Acu-Link.com,2013-01-04 05:55:00,
2013-01-04 01:10:00,59.5,58.6,29.95,NNW,337,1.1,-999.0,97,-99.99,,,0.01,Acu-Link.com,2013-01-04 06:10:00,
2013-01-04 01:26:00,59.5,58.6,29.95,ESE,112,2.7,-999.0,97,-99.99,,,0.01,Acu-Link.com,2013-01-04 06:26:00,
2013-01-04 01:41:00,59.7,58.8,29.96,WSW,247,1.1,-999.0,97,-99.99,,,0.01,Acu-Link.com,2013-01-04 06:41:00,
2013-01-04 01:56:00,59.9,59.0,29.96,NW,315,0.0,-999.0,97,-99.99,,,0.01,Acu-Link.com,2013-01-04 06:56:00,
2013-01-04 02:12:00,60.1,59.2,29.96,WNW,292,2.2,-999.0,97,-99.99,,,0.01,Acu-Link.com,2013-01-04 07:12:00,
2013-01-04 02:27:00,59.9,59.0,29.95,South,180,0.0,-999.0,97,-99.99,,,0.01,Acu-Link.com,2013-01-04 07:27:00,
2013-01-04 02:42:00,59.7,58.8,29.96,East,90,1.7,-999.0,97,-99.99,,,0.01,Acu-Link.com,2013-01-04 07:42:00,
2013-01-04 02:57:00,59.4,58.5,29.97,South,180,1.1,-999.0,97,-99.99,,,0.01,Acu-Link.com,2013-01-04 07:57:00,
2013-01-04 03:13:00,59.0,58.1,29.97,NW,315,2.2,-999.0,97,-99.99,,,0.01,Acu-Link.com,2013-01-04 08:13:00,
2013-01-04 03:28:00,58.8,57.7,29.97,ESE,112,1.1,-999.0,96,-99.99,,,0.01,Acu-Link.com,2013-01-04 08:28:00,
2013-01-04 03:43:00,58.6,57.5,29.98,North,0,1.7,-999.0,96,-99.99,,,0.01,Acu-Link.com,2013-01-04 08:43:00,
2013-01-04 03:59:00,58.3,57.2,29.97,NNE,22,0.0,-999.0,96,-99.99,,,0.01,Acu-Link.com,2013-01-04 08:59:00,
2013-01-04 04:14:00,58.5,57.4,29.98,NNW,337,2.7,-999.0,96,-99.99,,,0.01,Acu-Link.com,2013-01-04 09:14:00,
2013-01-04 04:29:00,58.1,57.0,29.97,SSE,157,1.7,-999.0,96,-99.99,,,0.01,Acu-Link.com,2013-01-04 09:29:00,
2013-01-04 04:44:00,57.9,57.1,29.98,WNW,292,1.7,-999.0,97,-99.99,,,0.01,Acu-Link.com,2013-01-04 09:44:00,
2013-01-04 05:00:00,58.1,57.0,29.98,WSW,247,1.1,-999.0,96,-99.99,,,0.01,Acu-Link.com,2013-01-04 10:00:00,
2013-01-04 05:15:00,57.7,56.6,29.98,North,0,1.7,-999.0,96,-99.99,,,0.01,Acu-Link.com,2013-01-04 10:15:00,
2013-01-04 05:30:00,57.6,56.5,29.98,SSE,157,1.1,-999.0,96,-99.99,,,0.01,Acu-Link.com,2013-01-04 10:30:00,
2013-01-04 05:45:00,57.4,56.3,29.99,SSE,157,1.1,-999.0,96,-99.99,,,0.01,Acu-Link.com,2013-01-04 10:45:00,
2013-01-04 06:01:00,57.4,56.6,29.99,NNE,22,1.7,-999.0,97,-99.99,,,0.02,Acu-Link.com,2013-01-04 11:01:00,
2013-01-04 06:16:00,57.2,56.4,30.00,SE,135,1.1,-999.0,97,-99.99,,,0.02,Acu-Link.com,2013-01-04 11:16:00,
2013-01-04 06:31:00,57.0,56.4,30.00,WNW,292,2.2,-999.0,98,-99.99,,,0.02,Acu-Link.com,2013-01-04 11:31:00,
2013-01-04 06:47:00,56.8,56.2,30.00,SSW,202,1.1,-999.0,98,-99.99,,,0.02,Acu-Link.com,2013-01-04 11:47:00,
2013-01-04 07:02:00,56.8,56.2,30.01,NW,315,1.7,-999.0,98,-99.99,,,0.02,Acu-Link.com,2013-01-04 12:02:00,
2013-01-04 07:17:00,56.8,56.2,30.03,WNW,292,1.7,-999.0,98,-99.99,,,0.02,Acu-Link.com,2013-01-04 12:17:00,
2013-01-04 07:33:00,56.7,56.1,30.03,NE,45,2.2,-999.0,98,-99.99,,,0.02,Acu-Link.com,2013-01-04 12:33:00,
2013-01-04 07:48:00,56.8,56.2,30.04,ESE,112,1.1,-999.0,98,-99.99,,,0.02,Acu-Link.com,2013-01-04 12:48:00,
2013-01-04 08:03:00,56.7,56.1,30.04,East,90,1.1,-999.0,98,-99.99,,,0.02,Acu-Link.com,2013-01-04 13:03:00,
2013-01-04 08:18:00,56.7,56.1,30.05,SSE,157,0.0,-999.0,98,-99.99,,,0.02,Acu-Link.com,2013-01-04 13:18:00,
2013-01-04 08:34:00,57.0,56.4,30.06,NW,315,2.2,-999.0,98,-99.99,,,0.02,Acu-Link.com,2013-01-04 13:34:00,
2013-01-04 08:49:00,57.0,56.2,30.06,WNW,292,0.0,-999.0,97,-99.99,,,0.02,Acu-Link.com,2013-01-04 13:49:00,
2013-01-04 09:04:00,56.8,55.4,30.06,South,180,2.2,-999.0,95,-99.99,,,0.02,Acu-Link.com,2013-01-04 14:04:00,
2013-01-04 09:20:00,56.7,55.3,30.07,NNE,22,2.2,-999.0,95,-99.99,,,0.02,Acu-Link.com,2013-01-04 14:20:00,
2013-01-04 09:35:00,57.0,55.6,30.07,South,180,0.0,-999.0,95,-99.99,,,0.02,Acu-Link.com,2013-01-04 14:35:00,
2013-01-04 09:50:00,57.4,55.7,30.08,West,270,2.2,-999.0,94,-99.99,,,0.02,Acu-Link.com,2013-01-04 14:50:00,
2013-01-04 10:06:00,57.6,55.9,30.08,West,270,2.2,-999.0,94,-99.99,,,0.02,Acu-Link.com,2013-01-04 15:06:00,
2013-01-04 10:21:00,57.9,56.2,30.08,NNE,22,2.7,-999.0,94,-99.99,,,0.02,Acu-Link.com,2013-01-04 15:21:00,
2013-01-04 10:36:00,58.6,56.3,30.07,WSW,247,1.7,-999.0,92,-99.99,,,0.02,Acu-Link.com,2013-01-04 15:36:00,
2013-01-04 10:51:00,59.0,56.7,30.07,SE,135,1.1,-999.0,92,-99.99,,,0.02,Acu-Link.com,2013-01-04 15:51:00,
2013-01-04 11:07:00,59.5,56.9,30.07,ESE,112,1.7,-999.0,91,-99.99,,,0.02,Acu-Link.com,2013-01-04 16:07:00,
2013-01-04 11:22:00,61.2,57.9,30.07,WNW,292,1.7,-999.0,89,-99.99,,,0.02,Acu-Link.com,2013-01-04 16:22:00,
2013-01-04 11:38:00,61.0,57.7,30.06,NW,315,2.2,-999.0,89,-99.99,,,0.02,Acu-Link.com,2013-01-04 16:38:00,
2013-01-04 11:53:00,61.3,57.7,30.06,NNW,337,2.2,-999.0,88,-99.99,,,0.02,Acu-Link.com,2013-01-04 16:53:00,
2013-01-04 12:08:00,62.8,58.9,30.05,NNW,337,1.7,-999.0,87,-99.99,,,0.02,Acu-Link.com,2013-01-04 17:08:00,
2013-01-04 12:24:00,62.8,58.9,30.05,West,270,3.2,-999.0,87,-99.99,,,0.02,Acu-Link.com,2013-01-04 17:24:00,
2013-01-04 12:39:00,62.1,58.5,30.04,South,180,1.7,-999.0,88,-99.99,,,0.02,Acu-Link.com,2013-01-04 17:39:00,
2013-01-04 12:54:00,62.6,59.0,30.03,NNW,337,1.1,-999.0,88,-99.99,,,0.02,Acu-Link.com,2013-01-04 17:54:00,
2013-01-04 13:09:00,63.3,59.4,30.02,SW,225,1.7,-999.0,87,-99.99,,,0.02,Acu-Link.com,2013-01-04 18:09:00,
2013-01-04 13:25:00,63.5,59.6,30.01,WNW,292,0.0,-999.0,87,-99.99,,,0.02,Acu-Link.com,2013-01-04 18:25:00,
2013-01-04 13:40:00,63.1,59.2,30.00,WSW,247,1.1,-999.0,87,-99.99,,,0.02,Acu-Link.com,2013-01-04 18:40:00,
2013-01-04 13:55:00,63.3,59.4,30.01,NNW,337,1.7,-999.0,87,-99.99,,,0.02,Acu-Link.com,2013-01-04 18:55:00,
2013-01-04 14:11:00,63.1,59.2,30.00,ESE,112,0.0,-999.0,87,-99.99,,,0.02,Acu-Link.com,2013-01-04 19:11:00,
2013-01-04 14:26:00,63.5,59.6,29.99,South,180,1.7,-999.0,87,-99.99,,,0.02,Acu-Link.com,2013-01-04 19:26:00,
2013-01-04 14:41:00,63.9,60.0,29.99,South,180,2.7,-999.0,87,-99.99,,,0.02,Acu-Link.com,2013-01-04 19:41:00,
2013-01-04 14:57:00,63.5,59.2,29.99,South,180,0.0,-999.0,86,-99.99,,,0.02,Acu-Link.com,2013-01-04 19:57:00,
2013-01-04 15:12:00,63.0,59.4,29.99,East,90,2.2,-999.0,88,-99.99,,,0.02,Acu-Link.com,2013-01-04 20:12:00,
2013-01-04 15:27:00,62.4,59.1,30.00,WSW,247,1.1,-999.0,89,-99.99,,,0.02,Acu-Link.com,2013-01-04 20:27:00,
2013-01-04 15:42:00,61.9,58.9,30.00,NNW,337,1.1,-999.0,90,-99.99,,,0.02,Acu-Link.com,2013-01-04 20:42:00,
2013-01-04 15:58:00,61.7,59.0,30.01,NW,315,2.2,-999.0,91,-99.99,,,0.02,Acu-Link.com,2013-01-04 20:58:00,
2013-01-04 16:13:00,61.2,58.5,30.01,ESE,112,1.1,-999.0,91,-99.99,,,0.02,Acu-Link.com,2013-01-04 21:13:00,
2013-01-04 16:28:00,61.9,58.9,30.02,SSE,157,1.7,-999.0,90,-99.99,,,0.02,Acu-Link.com,2013-01-04 21:28:00,
2013-01-04 16:44:00,61.5,58.5,30.02,West,270,1.1,-999.0,90,-99.99,,,0.02,Acu-Link.com,2013-01-04 21:44:00,
2013-01-04 16:59:00,61.0,58.4,30.03,WNW,292,1.7,-999.0,91,-99.99,,,0.02,Acu-Link.com,2013-01-04 21:59:00,
2013-01-04 17:15:00,60.4,58.1,30.03,SSE,157,1.1,-999.0,92,-99.99,,,0.02,Acu-Link.com,2013-01-04 22:15:00,
2013-01-04 17:30:00,60.1,58.1,30.04,South,180,0.0,-999.0,93,-99.99,,,0.02,Acu-Link.com,2013-01-04 22:30:00,
2013-01-04 17:45:00,59.9,57.9,30.04,South,180,2.7,-999.0,93,-99.99,,,0.02,Acu-Link.com,2013-01-04 22:45:00,
2013-01-04 18:00:00,59.5,58.1,30.05,East,90,0.0,-999.0,95,-99.99,,,0.02,Acu-Link.com,2013-01-04 23:00:00,
2013-01-04 18:16:00,59.2,58.1,30.05,WNW,292,0.0,-999.0,96,-99.99,,,0.02,Acu-Link.com,2013-01-04 23:16:00,
2013-01-04 18:31:00,59.2,58.3,30.06,NNW,337,0.0,-999.0,97,-99.99,,,0.02,Acu-Link.com,2013-01-04 23:31:00,
2013-01-04 18:46:00,59.0,58.1,30.06,ESE,112,0.0,-999.0,97,-99.99,,,0.02,Acu-Link.com,2013-01-04 23:46:00,
2013-01-04 19:02:00,58.8,57.9,30.06,SSE,157,0.0,-999.0,97,-99.99,,,0.02,Acu-Link.com,2013-01-05 00:02:00,
2013-01-04 19:17:00,58.8,57.9,30.06,WNW,292,0.0,-999.0,97,-99.99,,,0.02,Acu-Link.com,2013-01-05 00:17:00,
2013-01-04 19:32:00,58.8,57.9,30.07,South,180,1.1,-999.0,97,-99.99,,,0.02,Acu-Link.com,2013-01-05 00:32:00,
2013-01-04 19:48:00,59.0,58.1,30.07,SW,225,0.0,-999.0,97,-99.99,,,0.02,Acu-Link.com,2013-01-05 00:48:00,
2013-01-04 20:03:00,59.0,58.1,30.07,SSW,202,0.0,-999.0,97,-99.99,,,0.02,Acu-Link.com,2013-01-05 01:03:00,
2013-01-04 20:18:00,59.0,58.1,30.08,South,180,0.0,-999.0,97,-99.99,,,0.02,Acu-Link.com,2013-01-05 01:18:00,
2013-01-04 20:33:00,59.2,58.3,30.08,WSW,247,1.7,-999.0,97,-99.99,,,0.02,Acu-Link.com,2013-01-05 01:33:00,
2013-01-04 20:49:00,59.2,58.3,30.08,SW,225,0.0,-999.0,97,-99.99,,,0.02,Acu-Link.com,2013-01-05 01:49:00,
2013-01-04 21:04:00,59.2,58.3,30.08,ESE,112,1.7,-999.0,97,-99.99,,,0.02,Acu-Link.com,2013-01-05 02:04:00,
2013-01-04 21:19:00,59.2,58.3,30.08,NE,45,1.7,-999.0,97,-99.99,,,0.02,Acu-Link.com,2013-01-05 02:19:00,
2013-01-04 21:35:00,59.2,58.1,30.09,ENE,67,0.0,-999.0,96,-99.99,,,0.02,Acu-Link.com,2013-01-05 02:35:00,
2013-01-04 21:50:00,59.4,58.3,30.09,NNW,337,1.1,-999.0,96,-99.99,,,0.02,Acu-Link.com,2013-01-05 02:50:00,
2013-01-04 22:05:00,59.4,58.3,30.08,NNW,337,0.0,-999.0,96,-99.99,,,0.02,Acu-Link.com,2013-01-05 03:05:00,
2013-01-04 22:21:00,59.4,58.3,30.08,SSW,202,0.0,-999.0,96,-99.99,,,0.02,Acu-Link.com,2013-01-05 03:21:00,
2013-01-04 22:36:00,59.4,58.3,30.08,South,180,0.0,-999.0,96,-99.99,,,0.02,Acu-Link.com,2013-01-05 03:36:00,
2013-01-04 22:51:00,59.4,58.3,30.08,WNW,292,0.0,-999.0,96,-99.99,,,0.02,Acu-Link.com,2013-01-05 03:51:00,
2013-01-04 23:06:00,59.4,58.3,30.08,South,180,0.0,-999.0,96,-99.99,,,0.02,Acu-Link.com,2013-01-05 04:06:00,
2013-01-04 23:22:00,59.2,58.3,30.08,NW,315,2.7,-999.0,97,-99.99,,,0.02,Acu-Link.com,2013-01-05 04:22:00,
2013-01-04 23:37:00,59.2,58.3,30.08,NE,45,0.0,-999.0,97,-99.99,,,0.02,Acu-Link.com,2013-01-05 04:37:00,
2013-01-04 23:53:00,59.2,58.3,30.08,West,270,0.0,-999.0,97,-99.99,,,0.02,Acu-Link.com,2013-01-05 04:53:00,